Location: Austin
(30.3000°N, 97.7500°W)
Time: 05:37:41
(UTC-06:00)

YAOGAN 1 - Pass Details

Date: 12 November 2024
Orbit: 609 x 611 km, 97.8° (Epoch: 06 December)

Event Time Altitude Azimuth Distance (km) Brightness Sun altitude
Rises 19:36:37 0° 178° (S) 2,858 6.0 -26.2°
Reaches altitude 10° 19:38:50 10° 184° (S) 1,957 5.2 -26.7°
Maximum altitude 19:42:59 51° 260° (W) 772 3.3 -27.6°
Drops below altitude 10° 19:47:08 10° 337° (NNW) 1,967 5.3 -28.5°
Sets 19:49:23 0° 342° (NNW) 2,875 6.1 -28.9°
